Time,TemperatureF,DewpointF,PressureIn,WindDirection,WindDirectionDegrees,WindSpeedMPH,WindSpeedGustMPH,Humidity,HourlyPrecipIn,Conditions,Clouds,dailyrainin,SoftwareType,DateUTC
2013-07-04 00:02:00,73.0,72.7,30.40,South,180,0.0,2.0,99,0.00,,,0.92,meteohub,2013-07-04 04:02:00,
2013-07-04 00:12:00,73.0,72.7,30.40,South,180,0.0,2.0,99,0.00,,,0.00,meteohub,2013-07-04 04:12:00,
2013-07-04 00:22:00,73.0,72.7,30.40,South,180,0.0,2.0,99,0.00,,,0.00,meteohub,2013-07-04 04:22:00,
2013-07-04 00:32:00,73.0,72.7,30.40,South,180,0.0,2.0,99,0.00,,,0.00,meteohub,2013-07-04 04:32:00,
2013-07-04 00:42:00,73.0,72.7,30.40,South,180,0.0,2.0,99,0.00,,,0.00,meteohub,2013-07-04 04:42:00,
2013-07-04 00:52:00,73.0,72.7,30.40,South,180,0.0,2.0,99,0.00,,,0.00,meteohub,2013-07-04 04:52:00,
2013-07-04 01:02:00,73.0,72.7,30.40,South,180,1.0,2.0,99,0.00,,,0.00,meteohub,2013-07-04 05:02:00,
2013-07-04 01:12:00,73.0,72.7,30.40,South,180,2.0,2.0,99,0.00,,,0.00,meteohub,2013-07-04 05:12:00,
2013-07-04 01:22:00,73.0,72.7,30.40,South,180,1.0,2.0,99,0.00,,,0.00,meteohub,2013-07-04 05:22:00,
2013-07-04 01:32:00,73.0,72.7,30.39,South,180,1.0,2.0,99,0.00,,,0.00,meteohub,2013-07-04 05:32:00,
2013-07-04 01:42:00,73.0,72.7,30.40,South,180,1.0,2.0,99,0.00,,,0.00,meteohub,2013-07-04 05:42:00,
2013-07-04 01:52:00,73.0,72.7,30.39,South,180,1.0,2.0,99,0.00,,,0.00,meteohub,2013-07-04 05:52:00,
2013-07-04 02:02:00,73.0,72.7,30.39,South,180,1.0,2.0,99,0.00,,,0.00,meteohub,2013-07-04 06:02:00,
2013-07-04 02:12:00,73.0,72.7,30.39,SSW,202,0.0,2.0,99,0.00,,,0.00,meteohub,2013-07-04 06:12:00,
2013-07-04 02:22:00,73.0,72.7,30.39,SSW,202,0.0,2.0,99,0.00,,,0.00,meteohub,2013-07-04 06:22:00,
2013-07-04 02:32:00,73.0,72.7,30.39,SSW,202,0.0,2.0,99,0.00,,,0.00,meteohub,2013-07-04 06:32:00,
2013-07-04 02:42:00,73.0,72.7,30.39,SSW,202,1.0,2.0,99,0.00,,,0.00,meteohub,2013-07-04 06:42:00,
2013-07-04 02:52:00,73.0,72.7,30.38,SSW,202,1.0,2.0,99,0.00,,,0.00,meteohub,2013-07-04 06:52:00,
2013-07-04 03:02:00,73.0,72.7,30.38,South,180,2.0,2.0,99,0.00,,,0.00,meteohub,2013-07-04 07:02:00,
2013-07-04 03:12:00,73.0,72.7,30.38,SW,225,1.0,2.0,99,0.00,,,0.00,meteohub,2013-07-04 07:12:00,
2013-07-04 03:22:00,73.0,72.7,30.38,SE,135,0.0,3.0,99,0.00,,,0.00,meteohub,2013-07-04 07:22:00,
2013-07-04 03:32:00,73.0,72.7,30.38,SW,225,0.0,3.0,99,0.00,,,0.00,meteohub,2013-07-04 07:32:00,
2013-07-04 03:42:00,73.0,72.7,30.39,SW,225,1.0,3.0,99,0.00,,,0.00,meteohub,2013-07-04 07:42:00,
2013-07-04 03:52:00,73.0,72.7,30.39,SW,225,0.0,3.0,99,0.00,,,0.00,meteohub,2013-07-04 07:52:00,
2013-07-04 04:02:00,73.0,72.7,30.39,SW,225,1.0,2.0,99,0.00,,,0.00,meteohub,2013-07-04 08:02:00,
2013-07-04 04:12:00,73.0,72.7,30.38,SW,225,1.0,2.0,99,0.00,,,0.00,meteohub,2013-07-04 08:12:00,
2013-07-04 04:22:00,73.0,72.7,30.38,SW,225,2.0,2.0,99,0.00,,,0.00,meteohub,2013-07-04 08:22:00,
2013-07-04 04:32:00,73.0,72.7,30.39,SW,225,0.0,2.0,99,0.00,,,0.00,meteohub,2013-07-04 08:32:00,
2013-07-04 04:42:00,73.0,72.7,30.39,South,180,1.0,3.0,99,0.00,,,0.00,meteohub,2013-07-04 08:42:00,
2013-07-04 04:52:00,73.9,73.6,30.40,SSW,202,1.0,3.0,99,0.00,,,0.00,meteohub,2013-07-04 08:52:00,
2013-07-04 05:02:00,73.9,73.4,30.40,SSW,202,2.0,3.0,98,0.00,,,0.00,meteohub,2013-07-04 09:02:00,
2013-07-04 05:12:00,73.9,73.4,30.40,SW,225,1.0,6.0,98,0.00,,,0.00,meteohub,2013-07-04 09:12:00,
2013-07-04 05:22:00,73.9,73.0,30.40,SW,225,2.0,6.0,97,0.00,,,0.00,meteohub,2013-07-04 09:22:00,
2013-07-04 05:32:00,73.9,73.0,30.40,ESE,112,1.0,2.0,97,0.00,,,0.00,meteohub,2013-07-04 09:32:00,
2013-07-04 05:42:00,73.9,73.0,30.40,South,180,2.0,3.0,97,0.00,,,0.00,meteohub,2013-07-04 09:42:00,
2013-07-04 05:52:00,73.9,73.0,30.40,South,180,2.0,2.0,97,0.00,,,0.00,meteohub,2013-07-04 09:52:00,
2013-07-04 06:02:00,73.9,73.0,30.40,South,180,1.0,2.0,97,0.00,,,0.00,meteohub,2013-07-04 10:02:00,
2013-07-04 06:12:00,73.9,72.7,30.40,SW,225,1.0,2.0,96,0.00,,,0.00,meteohub,2013-07-04 10:12:00,
2013-07-04 06:22:00,73.9,72.7,30.40,South,180,0.0,2.0,96,0.00,,,0.00,meteohub,2013-07-04 10:22:00,
2013-07-04 06:32:00,73.9,72.7,30.41,SW,225,0.0,3.0,96,0.00,,,0.00,meteohub,2013-07-04 10:32:00,
2013-07-04 06:42:00,73.9,72.7,30.41,WSW,247,0.0,2.0,96,0.00,,,0.00,meteohub,2013-07-04 10:42:00,
2013-07-04 06:52:00,73.9,72.7,30.41,SW,225,0.0,2.0,96,0.00,,,0.00,meteohub,2013-07-04 10:52:00,
2013-07-04 07:02:00,73.9,73.0,30.41,South,180,1.0,2.0,97,0.00,,,0.00,meteohub,2013-07-04 11:02:00,
2013-07-04 07:12:00,73.9,72.7,30.42,SW,225,2.0,2.0,96,0.00,,,0.00,meteohub,2013-07-04 11:12:00,
2013-07-04 07:22:00,73.9,72.7,30.42,SW,225,0.0,2.0,96,0.00,,,0.00,meteohub,2013-07-04 11:22:00,
2013-07-04 07:32:00,73.9,72.5,30.42,SW,225,0.0,2.0,95,0.00,,,0.00,meteohub,2013-07-04 11:32:00,
2013-07-04 07:42:00,75.0,73.2,30.42,SSW,202,2.0,2.0,94,0.00,,,0.00,meteohub,2013-07-04 11:42:00,
2013-07-04 07:52:00,75.0,72.9,30.43,South,180,1.0,4.0,93,0.00,,,0.00,meteohub,2013-07-04 11:52:00,
2013-07-04 08:02:00,75.0,72.1,30.43,SW,225,2.0,4.0,91,0.00,,,0.00,meteohub,2013-07-04 12:02:00,
2013-07-04 08:12:00,75.9,73.0,30.44,SW,225,0.0,4.0,91,0.00,,,0.00,meteohub,2013-07-04 12:12:00,
2013-07-04 08:22:00,75.9,72.9,30.43,SSW,202,0.0,3.0,90,0.00,,,0.00,meteohub,2013-07-04 12:22:00,
2013-07-04 08:32:00,75.9,72.9,30.43,SW,225,2.0,4.0,90,0.00,,,0.00,meteohub,2013-07-04 12:32:00,
2013-07-04 08:42:00,75.9,72.9,30.44,WSW,247,2.0,5.0,90,0.00,,,0.00,meteohub,2013-07-04 12:42:00,
2013-07-04 08:52:00,75.9,72.5,30.44,SE,135,0.0,2.0,89,0.00,,,0.00,meteohub,2013-07-04 12:52:00,
2013-07-04 09:02:00,75.9,72.5,30.44,South,180,1.0,3.0,89,0.00,,,0.00,meteohub,2013-07-04 13:02:00,
2013-07-04 09:12:00,75.9,72.5,30.44,SW,225,1.0,5.0,89,0.00,,,0.00,meteohub,2013-07-04 13:12:00,
2013-07-04 09:22:00,75.9,72.5,30.45,WSW,247,0.0,4.0,89,0.00,,,0.00,meteohub,2013-07-04 13:22:00,
2013-07-04 09:32:00,77.0,73.2,30.45,South,180,0.0,2.0,88,0.00,,,0.00,meteohub,2013-07-04 13:32:00,
2013-07-04 09:42:00,77.0,73.2,30.45,SW,225,1.0,2.0,88,0.00,,,0.00,meteohub,2013-07-04 13:42:00,
2013-07-04 09:52:00,77.0,72.9,30.45,SW,225,0.0,3.0,87,0.00,,,0.00,meteohub,2013-07-04 13:52:00,
2013-07-04 10:02:00,77.0,72.9,30.45,SSW,202,1.0,3.0,87,0.00,,,0.00,meteohub,2013-07-04 14:02:00,
2013-07-04 10:12:00,78.1,73.6,30.45,SE,135,2.0,4.0,86,0.00,,,0.00,meteohub,2013-07-04 14:12:00,
2013-07-04 10:22:00,78.1,72.5,30.45,South,180,1.0,4.0,83,0.00,,,0.00,meteohub,2013-07-04 14:22:00,
2013-07-04 10:32:00,79.0,72.7,30.45,SW,225,2.0,2.0,81,0.00,,,0.00,meteohub,2013-07-04 14:32:00,
2013-07-04 10:42:00,79.0,73.0,30.45,East,90,0.0,5.0,82,0.00,,,0.00,meteohub,2013-07-04 14:42:00,
2013-07-04 10:52:00,79.0,72.7,30.45,SSW,202,1.0,4.0,81,0.00,,,0.00,meteohub,2013-07-04 14:52:00,
2013-07-04 11:02:00,79.0,72.0,30.46,South,180,0.0,4.0,79,0.00,,,0.00,meteohub,2013-07-04 15:02:00,
2013-07-04 11:12:00,80.1,73.0,30.46,WSW,247,0.0,4.0,79,0.00,,,0.00,meteohub,2013-07-04 15:12:00,
2013-07-04 11:22:00,80.1,71.8,30.46,South,180,1.0,4.0,76,0.00,,,0.00,meteohub,2013-07-04 15:22:00,
2013-07-04 11:32:00,81.0,73.0,30.46,SE,135,1.0,4.0,77,0.00,,,0.00,meteohub,2013-07-04 15:32:00,
2013-07-04 11:42:00,81.0,72.7,30.46,SE,135,2.0,3.0,76,0.00,,,0.00,meteohub,2013-07-04 15:42:00,
2013-07-04 11:52:00,82.0,72.5,30.46,SW,225,2.0,4.0,73,0.00,,,0.00,meteohub,2013-07-04 15:52:00,
2013-07-04 12:02:00,82.0,72.5,30.46,SW,225,3.0,7.0,73,0.00,,,0.00,meteohub,2013-07-04 16:02:00,
2013-07-04 12:12:00,82.9,73.4,30.46,SW,225,1.0,6.0,73,0.00,,,0.00,meteohub,2013-07-04 16:12:00,
2013-07-04 12:22:00,84.0,72.7,30.46,West,270,0.0,6.0,69,0.00,,,0.00,meteohub,2013-07-04 16:22:00,
2013-07-04 12:32:00,84.0,72.0,30.46,SW,225,1.0,5.0,67,0.00,,,0.00,meteohub,2013-07-04 16:32:00,
2013-07-04 12:42:00,84.0,72.7,30.46,SW,225,0.0,5.0,69,0.00,,,0.00,meteohub,2013-07-04 16:42:00,
2013-07-04 12:52:00,84.9,71.4,30.46,South,180,1.0,5.0,64,0.00,,,0.00,meteohub,2013-07-04 16:52:00,
2013-07-04 13:02:00,84.9,70.9,30.46,SW,225,0.0,5.0,63,0.00,,,0.00,meteohub,2013-07-04 17:02:00,
2013-07-04 13:12:00,87.1,71.4,30.46,SW,225,2.0,4.0,60,0.00,,,0.00,meteohub,2013-07-04 17:12:00,
2013-07-04 13:22:00,88.0,72.3,30.47,SE,135,1.0,4.0,60,0.00,,,0.00,meteohub,2013-07-04 17:22:00,
2013-07-04 13:32:00,89.1,72.9,30.47,West,270,1.0,3.0,59,0.00,,,0.00,meteohub,2013-07-04 17:32:00,
2013-07-04 13:42:00,89.1,72.9,30.47,ESE,112,2.0,2.0,59,0.00,,,0.00,meteohub,2013-07-04 17:42:00,
2013-07-04 13:52:00,89.1,72.3,30.47,SW,225,0.0,2.0,58,0.00,,,0.00,meteohub,2013-07-04 17:52:00,
2013-07-04 14:02:00,88.0,71.8,30.47,SW,225,1.0,5.0,59,0.00,,,0.00,meteohub,2013-07-04 18:02:00,
2013-07-04 14:12:00,89.1,71.8,30.47,SE,135,0.0,4.0,57,0.00,,,0.00,meteohub,2013-07-04 18:12:00,
2013-07-04 14:22:00,91.0,71.6,30.47,South,180,1.0,3.0,53,0.00,,,0.00,meteohub,2013-07-04 18:22:00,
2013-07-04 14:32:00,90.0,70.5,30.47,SW,225,3.0,3.0,53,0.00,,,0.00,meteohub,2013-07-04 18:32:00,
2013-07-04 14:42:00,91.0,70.3,30.46,SW,225,1.0,6.0,51,0.00,,,0.00,meteohub,2013-07-04 18:42:00,
2013-07-04 14:52:00,91.0,70.3,30.46,SSW,202,1.0,4.0,51,0.00,,,0.00,meteohub,2013-07-04 18:52:00,
2013-07-04 15:02:00,91.9,71.2,30.47,South,180,1.0,6.0,51,0.00,,,0.00,meteohub,2013-07-04 19:02:00,
2013-07-04 15:12:00,91.0,70.3,30.46,West,270,1.0,6.0,51,0.00,,,0.00,meteohub,2013-07-04 19:12:00,
2013-07-04 15:22:00,91.9,69.4,30.46,South,180,1.0,6.0,48,0.00,,,0.00,meteohub,2013-07-04 19:22:00,
2013-07-04 15:32:00,93.0,70.3,30.46,South,180,2.0,4.0,48,0.00,,,0.00,meteohub,2013-07-04 19:32:00,
2013-07-04 15:42:00,93.0,71.1,30.46,SW,225,2.0,4.0,49,0.00,,,0.00,meteohub,2013-07-04 19:42:00,
2013-07-04 15:52:00,93.9,71.8,30.46,SE,135,1.0,4.0,49,0.00,,,0.00,meteohub,2013-07-04 19:52:00,
2013-07-04 16:02:00,93.0,70.3,30.46,SE,135,2.0,4.0,48,0.00,,,0.00,meteohub,2013-07-04 20:02:00,
2013-07-04 16:12:00,93.9,71.2,30.46,South,180,1.0,4.0,48,0.00,,,0.00,meteohub,2013-07-04 20:12:00,
2013-07-04 16:22:00,93.0,68.5,30.45,SE,135,1.0,6.0,45,0.00,,,0.00,meteohub,2013-07-04 20:22:00,
2013-07-04 16:32:00,93.0,68.5,30.45,SSW,202,1.0,6.0,45,0.00,,,0.00,meteohub,2013-07-04 20:32:00,
2013-07-04 16:42:00,93.0,68.5,30.45,SW,225,0.0,3.0,45,0.00,,,0.00,meteohub,2013-07-04 20:42:00,
2013-07-04 16:52:00,93.9,68.7,30.44,SE,135,0.0,3.0,44,0.00,,,0.00,meteohub,2013-07-04 20:52:00,
2013-07-04 17:02:00,93.9,67.3,30.44,SSE,157,1.0,3.0,42,0.00,,,0.00,meteohub,2013-07-04 21:02:00,
2013-07-04 17:12:00,93.9,66.6,30.44,SW,225,0.0,2.0,41,0.00,,,0.00,meteohub,2013-07-04 21:12:00,
2013-07-04 17:22:00,93.9,66.6,30.44,SE,135,2.0,5.0,41,0.00,,,0.00,meteohub,2013-07-04 21:22:00,
2013-07-04 17:32:00,93.9,67.3,30.43,South,180,1.0,3.0,42,0.00,,,0.00,meteohub,2013-07-04 21:32:00,
2013-07-04 17:42:00,93.0,67.8,30.42,South,180,1.0,4.0,44,0.00,,,0.00,meteohub,2013-07-04 21:42:00,
2013-07-04 17:52:00,93.0,67.8,30.42,SW,225,0.0,6.0,44,0.00,,,0.00,meteohub,2013-07-04 21:52:00,
2013-07-04 18:02:00,93.0,67.8,30.42,SSW,202,1.0,3.0,44,0.00,,,0.00,meteohub,2013-07-04 22:02:00,
2013-07-04 18:12:00,93.0,69.3,30.42,SE,135,0.0,6.0,46,0.00,,,0.00,meteohub,2013-07-04 22:12:00,
2013-07-04 18:22:00,93.0,69.3,30.42,SE,135,1.0,3.0,46,0.00,,,0.00,meteohub,2013-07-04 22:22:00,
2013-07-04 18:32:00,91.0,68.0,30.42,SSW,202,1.0,5.0,47,0.00,,,0.00,meteohub,2013-07-04 22:32:00,
2013-07-04 18:42:00,91.0,68.0,30.42,SE,135,0.0,2.0,47,0.00,,,0.00,meteohub,2013-07-04 22:42:00,
2013-07-04 18:52:00,91.0,68.5,30.42,SE,135,1.0,2.0,48,0.00,,,0.00,meteohub,2013-07-04 22:52:00,
2013-07-04 19:02:00,90.0,68.9,30.42,SE,135,0.0,3.0,50,0.00,,,0.00,meteohub,2013-07-04 23:02:00,
2013-07-04 19:12:00,88.0,69.3,30.42,SE,135,0.0,4.0,54,0.00,,,0.00,meteohub,2013-07-04 23:12:00,
2013-07-04 19:22:00,87.1,69.4,30.42,SE,135,1.0,2.0,56,0.00,,,0.00,meteohub,2013-07-04 23:22:00,
2013-07-04 19:32:00,86.0,69.4,30.42,SE,135,0.0,2.0,58,0.00,,,0.00,meteohub,2013-07-04 23:32:00,
2013-07-04 19:42:00,84.9,68.5,30.42,SE,135,1.0,4.0,58,0.00,,,0.00,meteohub,2013-07-04 23:42:00,
2013-07-04 19:52:00,84.0,68.7,30.41,West,270,0.0,4.0,60,0.00,,,0.00,meteohub,2013-07-04 23:52:00,
2013-07-04 20:02:00,84.0,69.6,30.41,South,180,2.0,2.0,62,0.00,,,0.00,meteohub,2013-07-05 00:02:00,
2013-07-04 20:12:00,82.9,69.1,30.41,SSW,202,1.0,2.0,63,0.00,,,0.00,meteohub,2013-07-05 00:12:00,
2013-07-04 20:22:00,82.9,69.4,30.40,South,180,0.0,2.0,64,0.00,,,0.00,meteohub,2013-07-05 00:22:00,
2013-07-04 20:32:00,82.9,70.3,30.40,South,180,0.0,2.0,66,0.00,,,0.00,meteohub,2013-07-05 00:32:00,
2013-07-04 20:42:00,82.0,70.9,30.40,SE,135,0.0,2.0,69,0.00,,,0.00,meteohub,2013-07-05 00:42:00,
2013-07-04 20:52:00,82.0,71.2,30.40,East,90,0.0,2.0,70,0.00,,,0.00,meteohub,2013-07-05 00:52:00,
2013-07-04 21:02:00,81.0,70.7,30.40,SE,135,0.0,2.0,71,0.00,,,0.00,meteohub,2013-07-05 01:02:00,
2013-07-04 21:12:00,81.0,71.1,30.40,SE,135,1.0,2.0,72,0.00,,,0.00,meteohub,2013-07-05 01:12:00,
2013-07-04 21:22:00,81.0,72.0,30.40,SE,135,0.0,2.0,74,0.00,,,0.00,meteohub,2013-07-05 01:22:00,
2013-07-04 21:32:00,80.1,71.4,30.40,SE,135,0.0,2.0,75,0.00,,,0.00,meteohub,2013-07-05 01:32:00,
2013-07-04 21:42:00,80.1,71.8,30.40,SE,135,1.0,2.0,76,0.00,,,0.00,meteohub,2013-07-05 01:42:00,
2013-07-04 21:52:00,80.1,72.1,30.41,SE,135,0.0,2.0,77,0.00,,,0.00,meteohub,2013-07-05 01:52:00,
2013-07-04 22:02:00,80.1,72.5,30.41,SE,135,2.0,2.0,78,0.00,,,0.00,meteohub,2013-07-05 02:02:00,
2013-07-04 22:12:00,80.1,72.5,30.41,SE,135,2.0,2.0,78,0.00,,,0.00,meteohub,2013-07-05 02:12:00,
2013-07-04 22:22:00,79.0,71.6,30.41,SE,135,1.0,2.0,78,0.00,,,0.00,meteohub,2013-07-05 02:22:00,
2013-07-04 22:32:00,79.0,71.6,30.41,SE,135,0.0,2.0,78,0.00,,,0.00,meteohub,2013-07-05 02:32:00,
2013-07-04 22:42:00,79.0,71.6,30.41,South,180,2.0,2.0,78,0.00,,,0.00,meteohub,2013-07-05 02:42:00,
2013-07-04 22:52:00,79.0,71.6,30.41,South,180,0.0,2.0,78,0.00,,,0.00,meteohub,2013-07-05 02:52:00,
2013-07-04 23:02:00,79.0,72.3,30.41,South,180,1.0,2.0,80,0.00,,,0.00,meteohub,2013-07-05 03:02:00,
2013-07-04 23:12:00,78.1,71.8,30.41,South,180,1.0,2.0,81,0.00,,,0.00,meteohub,2013-07-05 03:12:00,
2013-07-04 23:22:00,78.1,72.5,30.41,South,180,1.0,2.0,83,0.00,,,0.00,meteohub,2013-07-05 03:22:00,
2013-07-04 23:32:00,78.1,72.9,30.40,South,180,0.0,2.0,84,0.00,,,0.00,meteohub,2013-07-05 03:32:00,
2013-07-04 23:42:00,77.0,72.1,30.40,SE,135,0.0,2.0,85,0.00,,,0.00,meteohub,2013-07-05 03:42:00,
2013-07-04 23:52:00,77.0,72.5,30.40,SE,135,1.0,2.0,86,0.00,,,0.00,meteohub,2013-07-05 03:52:00,